Location: Veytaux
(46.4185°N, 6.9320°E)
Time: 04:08:35
(UTC+00:00)

DEBRIS - Pass Details

Date: 02 October 2022
Orbit: 310 x 15046 km, 49.5° (Epoch: 28 November)

Event Time Altitude Azimuth Distance (km) Brightness Sun altitude
Rises 03:42:26 0° 186° (S) 11,197 9.2 -19.5°
Reaches altitude 10° 03:49:44 10° 181° (S) 11,572 9.3 -18.3°
Maximum altitude 05:32:15 65° 112° (ESE) 15,398 10.5 -0.8°
Drops below altitude 10° 06:57:13 10° 61° (ENE) 10,814 10.0 13.5°
Sets 07:03:12 0° 60° (ENE) 10,637 9.9 14.4°
